Location: Unspecified
(0.0000°N, 0.0000°E)
Time: 06:40:26
(UTC+00:00)

Envisat - Pass Details

Date: 18 January 2019
Orbit: 764 x 766 km, 98.1° (Epoch: 15 June)

Event Time Altitude Azimuth Distance (km) Brightness Sun altitude
Rises 19:02:23 0° 164° (SSE) 3,231 6.3 -12.2°
Reaches altitude 10° 19:04:43 10° 161° (SSE) 2,303 5.5 -12.7°
Maximum altitude 19:09:46 70° 78° (ENE) 813 2.9 -13.9°
Drops below altitude 10° 19:14:47 10° 355° (N) 2,293 5.3 -15.0°
Sets 19:17:06 0° 353° (N) 3,216 6.1 -15.6°
